TimeEDT,TemperatureF,Dew PointF,Humidity,Sea Level PressureIn,VisibilityMPH,Wind Direction,Wind SpeedMPH,Gust SpeedMPH,PrecipitationIn,Events,Conditions,WindDirDegrees,DateUTC
12:15 AM,62.6,60.8,94,30.04,10.0,ESE,3.5,-,N/A,,Clear,120,2012-10-15 04:15:00
12:35 AM,60.8,60.8,100,30.04,10.0,Calm,Calm,-,N/A,,Clear,0,2012-10-15 04:35:00
12:55 AM,60.8,60.8,100,30.03,10.0,Calm,Calm,-,N/A,,Clear,0,2012-10-15 04:55:00
1:35 AM,60.8,60.8,100,30.02,10.0,Calm,Calm,-,N/A,,Clear,0,2012-10-15 05:35:00
1:55 AM,59.0,59.0,100,30.01,10.0,Calm,Calm,-,N/A,,Clear,0,2012-10-15 05:55:00
2:35 AM,60.8,60.8,100,30.00,10.0,Calm,Calm,-,N/A,,Clear,0,2012-10-15 06:35:00
2:55 AM,60.8,60.8,100,29.99,10.0,Calm,Calm,-,N/A,,Clear,0,2012-10-15 06:55:00
3:15 AM,60.8,60.8,100,29.98,10.0,Calm,Calm,-,N/A,,Clear,0,2012-10-15 07:15:00
3:35 AM,59.0,59.0,100,29.98,10.0,Calm,Calm,-,N/A,,Clear,0,2012-10-15 07:35:00
3:55 AM,60.8,60.8,100,29.97,10.0,Calm,Calm,-,N/A,,Clear,0,2012-10-15 07:55:00
4:15 AM,60.8,60.8,100,29.96,10.0,Calm,Calm,-,N/A,,Clear,0,2012-10-15 08:15:00
4:35 AM,60.8,60.8,100,29.96,10.0,Calm,Calm,-,N/A,,Scattered Clouds,0,2012-10-15 08:35:00
4:55 AM,60.8,60.8,100,29.96,10.0,Calm,Calm,-,N/A,,Mostly Cloudy,0,2012-10-15 08:55:00
5:15 AM,60.8,60.8,100,29.96,10.0,Calm,Calm,-,N/A,,Mostly Cloudy,0,2012-10-15 09:15:00
5:35 AM,60.8,60.8,100,29.96,10.0,Calm,Calm,-,N/A,,Scattered Clouds,0,2012-10-15 09:35:00
5:55 AM,60.8,60.8,100,29.96,10.0,Calm,Calm,-,N/A,,Scattered Clouds,0,2012-10-15 09:55:00
6:15 AM,60.8,60.8,100,29.95,10.0,Calm,Calm,-,N/A,,Clear,0,2012-10-15 10:15:00
6:35 AM,60.8,60.8,100,29.95,10.0,Calm,Calm,-,N/A,,Clear,0,2012-10-15 10:35:00
6:55 AM,60.8,60.8,100,29.96,10.0,Calm,Calm,-,N/A,,Mostly Cloudy,0,2012-10-15 10:55:00
7:15 AM,60.8,60.8,100,29.96,10.0,Calm,Calm,-,N/A,,Overcast,0,2012-10-15 11:15:00
7:35 AM,60.8,60.8,100,29.96,10.0,Calm,Calm,-,N/A,,Overcast,0,2012-10-15 11:35:00
7:55 AM,60.8,60.8,100,29.96,10.0,Calm,Calm,-,N/A,,Overcast,0,2012-10-15 11:55:00
8:35 AM,62.6,62.6,100,29.97,10.0,Calm,Calm,-,N/A,,Scattered Clouds,0,2012-10-15 12:35:00
8:55 AM,62.6,62.6,100,29.97,10.0,Calm,Calm,-,N/A,,Clear,0,2012-10-15 12:55:00
9:15 AM,66.2,66.2,100,29.97,10.0,Calm,Calm,-,N/A,,Clear,0,2012-10-15 13:15:00
9:35 AM,68.0,68.0,100,29.97,10.0,Calm,Calm,-,N/A,,Mostly Cloudy,0,2012-10-15 13:35:00
9:55 AM,69.8,68.0,94,29.97,10.0,Calm,Calm,-,N/A,,Overcast,0,2012-10-15 13:55:00
10:15 AM,71.6,69.8,94,29.96,10.0,Calm,Calm,-,N/A,,Overcast,0,2012-10-15 14:15:00
10:55 AM,77.0,69.8,78,29.95,10.0,SSW,5.8,-,N/A,,Mostly Cloudy,210,2012-10-15 14:55:00
11:15 AM,77.0,69.8,78,29.94,10.0,SSW,9.2,-,N/A,,Scattered Clouds,210,2012-10-15 15:15:00
11:35 AM,77.0,69.8,78,29.93,10.0,SSW,9.2,16.1,N/A,,Mostly Cloudy,210,2012-10-15 15:35:00
11:55 AM,78.8,69.8,74,29.92,10.0,SSW,5.8,-,N/A,,Scattered Clouds,200,2012-10-15 15:55:00
12:35 PM,78.8,69.8,74,29.89,10.0,SW,9.2,-,N/A,,Mostly Cloudy,220,2012-10-15 16:35:00
12:55 PM,78.8,69.8,74,29.88,10.0,SSW,5.8,-,N/A,,Mostly Cloudy,210,2012-10-15 16:55:00
1:15 PM,80.6,69.8,70,29.87,10.0,SSW,5.8,-,N/A,,Scattered Clouds,200,2012-10-15 17:15:00
1:35 PM,80.6,69.8,70,29.86,10.0,SSW,8.1,-,N/A,,Scattered Clouds,200,2012-10-15 17:35:00
2:15 PM,80.6,69.8,70,29.83,10.0,SSW,4.6,-,N/A,,Scattered Clouds,210,2012-10-15 18:15:00
2:35 PM,80.6,69.8,70,29.82,10.0,South,9.2,-,N/A,,Scattered Clouds,190,2012-10-15 18:35:00
2:55 PM,80.6,68.0,65,29.81,10.0,South,3.5,-,N/A,,Mostly Cloudy,190,2012-10-15 18:55:00
3:15 PM,80.6,69.8,70,29.80,10.0,SW,8.1,-,N/A,,Mostly Cloudy,220,2012-10-15 19:15:00
3:35 PM,80.6,69.8,70,29.80,10.0,SSW,6.9,-,N/A,,Scattered Clouds,210,2012-10-15 19:35:00
3:55 PM,82.4,69.8,66,29.78,10.0,SW,8.1,-,N/A,,Mostly Cloudy,220,2012-10-15 19:55:00
4:15 PM,80.6,69.8,70,29.78,10.0,SSW,5.8,-,N/A,,Mostly Cloudy,210,2012-10-15 20:15:00
4:35 PM,80.6,69.8,70,29.79,10.0,WSW,3.5,-,N/A,,Mostly Cloudy,240,2012-10-15 20:35:00
4:55 PM,78.8,69.8,74,29.78,10.0,WSW,4.6,-,N/A,,Mostly Cloudy,250,2012-10-15 20:55:00
5:15 PM,78.8,69.8,74,29.78,10.0,SSW,5.8,-,N/A,,Mostly Cloudy,210,2012-10-15 21:15:00
5:35 PM,80.6,69.8,70,29.77,10.0,WSW,4.6,-,N/A,,Scattered Clouds,250,2012-10-15 21:35:00
5:55 PM,78.8,68.0,69,29.77,10.0,WSW,4.6,-,N/A,,Clear,250,2012-10-15 21:55:00
6:15 PM,77.0,68.0,74,29.78,10.0,WSW,4.6,-,N/A,,Clear,250,2012-10-15 22:15:00
6:35 PM,73.4,68.0,83,29.79,10.0,SW,3.5,-,N/A,,Clear,230,2012-10-15 22:35:00
6:55 PM,71.6,68.0,88,29.79,10.0,Calm,Calm,-,N/A,,Scattered Clouds,0,2012-10-15 22:55:00
7:15 PM,71.6,68.0,88,29.79,10.0,Calm,Calm,-,N/A,,Clear,0,2012-10-15 23:15:00
7:35 PM,71.6,68.0,88,29.79,10.0,Calm,Calm,-,N/A,,Clear,0,2012-10-15 23:35:00
7:55 PM,69.8,68.0,94,29.79,10.0,Calm,Calm,-,N/A,,Clear,0,2012-10-15 23:55:00
8:15 PM,68.0,68.0,100,29.80,10.0,Calm,Calm,-,N/A,,Clear,0,2012-10-16 00:15:00
8:35 PM,68.0,68.0,100,29.81,10.0,SSW,3.5,-,N/A,,Clear,200,2012-10-16 00:35:00
9:15 PM,68.0,68.0,100,29.82,10.0,Calm,Calm,-,N/A,,Clear,0,2012-10-16 01:15:00
9:35 PM,64.4,64.4,100,29.82,10.0,Calm,Calm,-,N/A,,Clear,0,2012-10-16 01:35:00
10:15 PM,64.4,64.4,100,29.83,10.0,WNW,4.6,-,N/A,,Clear,290,2012-10-16 02:15:00
10:35 PM,66.2,62.6,88,29.84,10.0,WNW,4.6,-,N/A,,Clear,300,2012-10-16 02:35:00
10:55 PM,66.2,60.8,83,29.85,10.0,NW,4.6,-,N/A,,Clear,310,2012-10-16 02:55:00
11:15 PM,64.4,59.0,83,29.85,10.0,NW,5.8,-,N/A,,Clear,310,2012-10-16 03:15:00
11:35 PM,64.4,59.0,83,29.85,10.0,NW,4.6,-,N/A,,Clear,320,2012-10-16 03:35:00
11:55 PM,62.6,59.0,88,29.85,10.0,NW,4.6,-,N/A,,Clear,320,2012-10-16 03:55:00